Total_Precipitation_Accumulation
0.00 0.00 0.00 0.00 0.01 0.01 0.01 0.04 0.10 0.13 0.12 0.18 0.29 0.48 0.63 0.62 0.77 1.16 1.38 1.34 1.32 1.57 2.04 2.39 2.60 2.73 2.98 3.07 3.18 3.09 3.19 3.55 3.84 3.68 3.33 3.09 2.77 2.51 2.29 2.12 2.02 2.03 2.05 2.22
0.00 0.01 0.00 0.01 0.01 0.01 0.02 0.06 0.13 0.15 0.13 0.21 0.36 0.58 0.74 0.82 1.07 1.23 1.15 1.15 1.32 1.60 2.04 2.37 2.59 2.69 2.89 3.12 3.52 3.56 3.60 3.89 4.07 3.86 3.61 3.38 3.14 2.78 2.64 2.49 2.31 2.06 1.97 2.07
0.01 0.01 0.01 0.01 0.01 0.02 0.04 0.06 0.12 0.12 0.19 0.31 0.39 0.78 0.94 1.05 1.19 1.18 1.14 1.29 1.36 1.43 1.80 2.00 2.04 2.23 2.37 2.45 2.68 2.92 3.28 3.63 3.70 3.74 3.61 3.49 3.36 2.88 2.70 2.54 2.35 2.12 1.98 1.94
0.01 0.01 0.01 0.02 0.02 0.02 0.06 0.05 0.05 0.08 0.16 0.41 0.49 0.99 1.19 1.38 1.44 1.26 1.21 1.20 1.21 1.42 1.72 1.70 1.57 1.72 1.88 1.81 2.04 2.38 2.73 3.00 3.13 3.24 3.24 3.25 3.12 2.86 2.77 2.60 2.24 2.00 1.86 1.85
0.02 0.02 0.02 0.04 0.03 0.03 0.04 0.04 0.06 0.09 0.16 0.37 0.43 0.77 1.22 1.54 1.63 1.28 1.17 1.12 1.18 1.37 1.41 1.40 1.44 1.53 1.61 1.69 1.93 2.18 2.38 2.61 2.75 2.81 2.80 2.79 2.67 2.53 2.45 2.30 2.03 1.85 1.72 1.66
0.02 0.04 0.04 0.03 0.03 0.04 0.04 0.07 0.12 0.17 0.33 0.67 0.58 0.68 1.17 1.47 1.29 1.11 1.07 0.92 1.00 1.21 1.29 1.36 1.43 1.45 1.54 1.78 2.04 2.26 2.42 2.56 2.59 2.40 2.24 2.23 2.22 2.19 2.10 1.94 1.76 1.59 1.49 1.42
0.13 0.10 0.07 0.05 0.06 0.06 0.08 0.16 0.53 0.87 1.18 1.08 0.68 0.78 1.36 1.22 0.86 0.77 0.85 0.84 0.85 0.93 1.09 1.19 1.34 1.50 1.60 1.66 1.65 1.91 2.21 2.38 2.33 2.12 1.93 1.86 1.86 1.86 1.82 1.70 1.60 1.51 1.37 1.28
0.28 0.25 0.13 0.09 0.12 0.13 0.13 0.24 0.65 0.87 0.92 0.90 0.72 1.12 1.51 1.12 0.76 0.61 0.68 0.70 0.62 0.59 0.56 0.65 0.78 0.83 0.90 0.91 0.89 0.98 1.14 1.30 1.35 1.29 1.28 1.29 1.32 1.36 1.40 1.47 1.40 1.37 1.32 1.20
0.16 0.15 0.10 0.12 0.17 0.18 0.24 0.28 0.28 0.46 0.62 0.91 0.90 1.10 1.09 0.83 0.67 0.60 0.66 0.65 0.53 0.48 0.43 0.47 0.53 0.50 0.57 0.58 0.61 0.72 0.81 0.89 0.91 0.88 0.86 0.86 0.93 1.01 1.07 1.10 1.11 1.13 1.14 1.08
0.10 0.10 0.10 0.10 0.15 0.18 0.20 0.27 0.42 0.64 0.83 0.89 0.94 1.22 1.31 1.14 0.94 0.75 0.72 0.67 0.51 0.41 0.36 0.37 0.44 0.44 0.52 0.62 0.73 0.82 0.81 0.78 0.71 0.69 0.69 0.64 0.71 0.77 0.81 0.81 0.81 0.82 0.83 0.87
0.08 0.08 0.11 0.18 0.21 0.21 0.22 0.29 0.44 0.60 0.65 0.78 1.02 1.10 0.82 0.77 0.83 0.89 0.92 0.78 0.53 0.39 0.34 0.35 0.40 0.43 0.48 0.57 0.66 0.72 0.75 0.75 0.69 0.64 0.65 0.63 0.63 0.61 0.64 0.68 0.66 0.68 0.69 0.71
0.08 0.09 0.15 0.24 0.20 0.15 0.21 0.30 0.46 0.68 0.73 0.73 0.80 0.85 0.47 0.47 0.56 0.64 0.65 0.55 0.38 0.30 0.28 0.29 0.30 0.31 0.38 0.46 0.53 0.56 0.58 0.66 0.65 0.59 0.60 0.61 0.58 0.53 0.54 0.55 0.54 0.56 0.59 0.62
0.11 0.13 0.23 0.47 0.45 0.24 0.24 0.24 0.33 0.46 0.55 0.61 0.75 0.83 0.49 0.45 0.53 0.53 0.51 0.45 0.34 0.30 0.29 0.29 0.29 0.29 0.32 0.41 0.48 0.51 0.54 0.60 0.62 0.59 0.61 0.57 0.56 0.55 0.51 0.46 0.43 0.42 0.46 0.52
0.10 0.12 0.21 0.52 0.56 0.36 0.28 0.26 0.28 0.37 0.49 0.45 0.43 0.57 0.54 0.50 0.58 0.52 0.45 0.38 0.30 0.25 0.25 0.25 0.27 0.30 0.31 0.33 0.36 0.40 0.51 0.61 0.58 0.55 0.55 0.51 0.48 0.47 0.48 0.45 0.41 0.39 0.39 0.44
0.10 0.13 0.14 0.22 0.27 0.31 0.32 0.26 0.23 0.26 0.29 0.37 0.37 0.51 0.58 0.56 0.54 0.44 0.38 0.33 0.27 0.23 0.21 0.19 0.20 0.19 0.22 0.25 0.29 0.34 0.36 0.44 0.51 0.54 0.51 0.48 0.47 0.44 0.41 0.38 0.35 0.34 0.33 0.33
0.15 0.17 0.16 0.23 0.30 0.33 0.35 0.31 0.24 0.22 0.22 0.27 0.31 0.41 0.39 0.40 0.40 0.36 0.32 0.29 0.29 0.22 0.17 0.14 0.13 0.13 0.14 0.17 0.20 0.25 0.27 0.32 0.38 0.42 0.41 0.44 0.45 0.43 0.43 0.36 0.32 0.31 0.31 0.34
0.23 0.26 0.23 0.26 0.38 0.43 0.46 0.30 0.26 0.26 0.23 0.33 0.48 0.48 0.37 0.41 0.33 0.27 0.24 0.21 0.19 0.15 0.12 0.10 0.08 0.08 0.09 0.09 0.12 0.19 0.24 0.27 0.30 0.34 0.36 0.39 0.42 0.44 0.43 0.34 0.30 0.30 0.31 0.34
0.23 0.36 0.40 0.36 0.50 0.63 0.51 0.28 0.22 0.23 0.21 0.21 0.27 0.28 0.27 0.33 0.31 0.22 0.16 0.13 0.12 0.11 0.08 0.06 0.06 0.05 0.05 0.07 0.11 0.19 0.26 0.29 0.31 0.36 0.40 0.42 0.43 0.45 0.45 0.39 0.36 0.37 0.38 0.39
0.20 0.33 0.39 0.43 0.52 0.55 0.40 0.33 0.29 0.31 0.33 0.20 0.21 0.21 0.19 0.19 0.20 0.18 0.12 0.09 0.08 0.08 0.07 0.06 0.05 0.05 0.06 0.09 0.14 0.20 0.24 0.30 0.36 0.41 0.45 0.46 0.47 0.48 0.48 0.48 0.49 0.51 0.53 0.46
0.27 0.34 0.44 0.43 0.51 0.64 0.49 0.37 0.32 0.34 0.54 0.34 0.24 0.20 0.20 0.20 0.26 0.24 0.13 0.08 0.06 0.05 0.05 0.06 0.06 0.08 0.10 0.13 0.19 0.27 0.30 0.36 0.41 0.41 0.43 0.43 0.49 0.55 0.57 0.60 0.65 0.66 0.68 0.61
0.53 0.56 0.54 0.49 0.50 0.49 0.45 0.36 0.32 0.53 0.63 0.33 0.28 0.25 0.23 0.21 0.25 0.20 0.12 0.09 0.07 0.06 0.06 0.07 0.09 0.14 0.19 0.19 0.27 0.34 0.36 0.41 0.44 0.51 0.52 0.53 0.55 0.62 0.65 0.74 0.82 0.84 0.82 0.81
0.67 0.72 0.69 0.65 0.70 0.68 0.53 0.46 0.52 0.58 0.45 0.36 0.27 0.24 0.19 0.19 0.16 0.15 0.12 0.11 0.11 0.09 0.10 0.10 0.12 0.20 0.27 0.30 0.40 0.47 0.48 0.50 0.59 0.66 0.67 0.68 0.75 0.66 0.63 0.81 0.90 0.96 0.99 0.94
0.57 0.63 0.69 0.73 0.70 0.56 0.55 0.55 0.53 0.53 0.52 0.46 0.33 0.28 0.22 0.23 0.18 0.15 0.13 0.12 0.12 0.12 0.12 0.15 0.20 0.27 0.30 0.38 0.54 0.69 0.73 0.73 0.75 0.81 0.86 0.90 0.91 0.91 0.91 0.98 1.02 1.03 1.04 1.01
0.53 0.49 0.62 0.74 0.72 0.67 0.68 0.61 0.54 0.50 0.54 0.49 0.36 0.33 0.30 0.26 0.21 0.20 0.19 0.16 0.14 0.13 0.13 0.16 0.20 0.26 0.35 0.45 0.62 0.77 0.83 0.81 0.82 0.87 0.91 1.00 1.07 1.06 1.09 1.19 1.18 1.14 1.12 1.11
0.53 0.51 0.65 0.81 0.85 0.84 0.85 0.71 0.60 0.52 0.44 0.38 0.32 0.32 0.29 0.26 0.24 0.21 0.21 0.21 0.19 0.15 0.13 0.16 0.23 0.32 0.38 0.44 0.55 0.66 0.77 0.86 0.95 1.02 1.04 1.12 1.21 1.29 1.31 1.26 1.24 1.19 1.19 1.12
0.55 0.54 0.59 0.71 0.71 0.71 0.67 0.60 0.48 0.45 0.44 0.39 0.34 0.35 0.30 0.28 0.30 0.25 0.21 0.20 0.18 0.17 0.18 0.22 0.27 0.35 0.41 0.46 0.56 0.66 0.79 0.94 1.12 1.17 1.18 1.20 1.21 1.27 1.29 1.26 1.13 1.01 0.95 0.87